When you browse on this site, cookies collect data to enhance your experience and personalize the content and advertising you see.
Visit our Privacy Policy to learn more. By continuing to use the site, you agree to this use of cookies and data.
  • In Romania
  • List of Countries
  • For 7 days
  • Water Temperature
  • Weather Map
  • Weather Widgets
  • user-avatar
    Login

    Hourly Weather Alicante

    Today, 20 February, Thursday

    Time Temperature Precipitation Wind Pressure Humidity
    00:00 +12°C° 0 mm 1 mps 770 mmHg 90%
    01:00 +12°C° 0 mm 1 mps 769 mmHg 91%
    02:00 +11°C° 0 mm 1 mps 769 mmHg 92%
    03:00 +11°C° 0 mm 1 mps 768 mmHg 92%
    04:00 +10°C° 0 mm 1 mps 768 mmHg 91%
    05:00 +10°C° 0 mm 1 mps 768 mmHg 91%
    06:00 +9°C° 0 mm 1 mps 767 mmHg 90%
    07:00 +11°C° 0 mm 1 mps 767 mmHg 82%
    08:00 +13°C° 0 mm 1 mps 767 mmHg 75%
    09:00 +14°C° 0 mm 1 mps 768 mmHg 68%
    10:00 +15°C° 0 mm 1 mps 767 mmHg 61%
    11:00 +18°C° 0 mm 1 mps 767 mmHg 55%
    12:00 +18°C° 0 mm 2 mps 767 mmHg 48%
    13:00 +18°C° 0 mm 2 mps 766 mmHg 51%
    14:00 +18°C° 0 mm 2 mps 766 mmHg 53%
    15:00 +18°C° 0 mm 2 mps 765 mmHg 55%
    16:00 +16°C° 0 mm 2 mps 766 mmHg 64%
    17:00 +15°C° 0 mm 2 mps 766 mmHg 72%
    18:00 +13°C° 0 mm 1 mps 766 mmHg 80%
    19:00 +13°C° 0 mm 1 mps 766 mmHg 82%
    20:00 +12°C° 0 mm 1 mps 767 mmHg 85%
    21:00 +12°C° 0 mm 1 mps 767 mmHg 87%
    22:00 +12°C° 0 mm 1 mps 768 mmHg 87%
    23:00 +11°C° 0 mm 1 mps 768 mmHg 87%

    Tomorrow, 21 February, Friday

    Time Temperature Precipitation Wind Pressure Humidity
    00:00 +11°C° 0 mm 1 mps 768 mmHg 87%
    01:00 +10°C° 0 mm 2 mps 768 mmHg 87%
    02:00 +9°C° 0 mm 2 mps 768 mmHg 87%
    03:00 +9°C° 0 mm 2 mps 768 mmHg 87%
    04:00 +9°C° 0 mm 2 mps 768 mmHg 86%
    05:00 +9°C° 0 mm 3 mps 769 mmHg 86%
    06:00 +9°C° 0 mm 3 mps 769 mmHg 85%
    13:00 +18°C° 0 mm 3 mps 770 mmHg 49%
    14:00 +18°C° 0 mm 4 mps 770 mmHg 51%
    15:00 +18°C° 0 mm 4 mps 770 mmHg 54%
    16:00 +16°C° 0 mm 3 mps 770 mmHg 64%
    17:00 +14°C° 0 mm 3 mps 770 mmHg 73%
    18:00 +13°C° 0 mm 2 mps 770 mmHg 83%
    19:00 +13°C° 0 mm 2 mps 770 mmHg 85%
    20:00 +12°C° 0 mm 1 mps 770 mmHg 88%
    21:00 +12°C° 0 mm 1 mps 771 mmHg 90%
    22:00 +11°C° 0 mm 1 mps 771 mmHg 90%
    23:00 +11°C° 0 mm 1 mps 771 mmHg 89%

    Day after tomorrow, 22 February, Saturday

    Time Temperature Precipitation Wind Pressure Humidity
    00:00 +11°C° 0 mm 1 mps 771 mmHg 89%
    01:00 +11°C° 0 mm 1 mps 771 mmHg 88%
    02:00 +10°C° 0 mm 1 mps 771 mmHg 87%
    03:00 +10°C° 0 mm 1 mps 771 mmHg 86%
    04:00 +9°C° 0 mm 0 mps 771 mmHg 86%
    05:00 +9°C° 0 mm 0 mps 771 mmHg 86%
    06:00 +8°C° 0 mm 0 mps 771 mmHg 86%
    07:00 +10°C° 0 mm 0 mps 771 mmHg 80%
    08:00 +12°C° 0 mm 0 mps 772 mmHg 73%
    09:00 +14°C° 0 mm 0 mps 772 mmHg 67%
    10:00 +16°C° 0 mm 1 mps 772 mmHg 62%
    11:00 +18°C° 0 mm 1 mps 772 mmHg 57%
    12:00 +19°C° 0 mm 2 mps 772 mmHg 52%
    13:00 +19°C° 0 mm 2 mps 772 mmHg 53%
    14:00 +19°C° 0 mm 2 mps 771 mmHg 54%
    15:00 +19°C° 0 mm 3 mps 771 mmHg 54%
    16:00 +17°C° 0 mm 2 mps 771 mmHg 64%
    17:00 +16°C° 0 mm 2 mps 771 mmHg 73%
    18:00 +14°C° 0 mm 2 mps 772 mmHg 82%
    19:00 +13°C° 0 mm 1 mps 772 mmHg 85%
    20:00 +13°C° 0 mm 1 mps 772 mmHg 88%
    21:00 +12°C° 0 mm 1 mps 773 mmHg 90%
    22:00 +12°C° 0 mm 1 mps 773 mmHg 90%
    23:00 +11°C° 0 mm 1 mps 773 mmHg 90%

    23 February, Sunday

    Time Temperature Precipitation Wind Pressure Humidity
    00:00 +11°C° 0 mm 1 mps 773 mmHg 90%
    01:00 +10°C° 0 mm 0 mps 773 mmHg 90%
    02:00 +10°C° 0 mm 0 mps 773 mmHg 89%
    03:00 +9°C° 0 mm 0 mps 772 mmHg 88%
    04:00 +9°C° 0 mm 0 mps 772 mmHg 88%
    05:00 +9°C° 0 mm 0 mps 772 mmHg 87%
    06:00 +8°C° 0 mm 0 mps 772 mmHg 87%
    07:00 +10°C° 0 mm 0 mps 773 mmHg 79%
    08:00 +12°C° 0 mm 0 mps 773 mmHg 72%
    09:00 +14°C° 0 mm 0 mps 773 mmHg 64%
    10:00 +16°C° 0 mm 1 mps 773 mmHg 57%
    11:00 +19°C° 0 mm 1 mps 773 mmHg 50%
    12:00 +20°C° 0 mm 1 mps 773 mmHg 43%
    13:00 +19°C° 0 mm 2 mps 772 mmHg 43%
    14:00 +19°C° 0 mm 2 mps 772 mmHg 44%
    15:00 +19°C° 0 mm 2 mps 771 mmHg 45%
    16:00 +18°C° 0 mm 2 mps 771 mmHg 55%
    17:00 +16°C° 0 mm 1 mps 771 mmHg 65%
    18:00 +14°C° 0 mm 1 mps 771 mmHg 75%
    19:00 +13°C° 0 mm 1 mps 771 mmHg 77%
    20:00 +12°C° 0 mm 0 mps 771 mmHg 79%
    21:00 +11°C° 0 mm 0 mps 772 mmHg 81%
    22:00 +11°C° 0 mm 0 mps 772 mmHg 80%
    23:00 +12°C° 0 mm 1 mps 772 mmHg 78%

    24 February, Monday

    Time Temperature Precipitation Wind Pressure Humidity
    00:00 +11°C° 0 mm 1 mps 772 mmHg 77%
    01:00 +10°C° 0 mm 0 mps 771 mmHg 77%
    02:00 +10°C° 0 mm 0 mps 771 mmHg 76%
    03:00 +10°C° 0 mm 0 mps 770 mmHg 75%
    04:00 +9°C° 0 mm 0 mps 770 mmHg 76%
    05:00 +9°C° 0 mm 0 mps 770 mmHg 76%
    06:00 +9°C° 0 mm 0 mps 770 mmHg 77%
    07:00 +11°C° 0 mm 0 mps 770 mmHg 67%
    08:00 +13°C° 0 mm 0 mps 770 mmHg 58%
    09:00 +16°C° 0 mm 0 mps 770 mmHg 48%
    10:00 +17°C° 0 mm 0 mps 770 mmHg 45%
    11:00 +20°C° 0 mm 1 mps 770 mmHg 41%
    12:00 +21°C° 0 mm 1 mps 769 mmHg 37%
    13:00 +22°C° 0 mm 1 mps 769 mmHg 37%
    14:00 +21°C° 0 mm 2 mps 768 mmHg 37%
    15:00 +21°C° 0 mm 2 mps 767 mmHg 38%
    16:00 +19°C° 0 mm 2 mps 767 mmHg 47%
    17:00 +18°C° 0 mm 1 mps 767 mmHg 57%
    18:00 +15°C° 0 mm 1 mps 767 mmHg 67%
    19:00 +14°C° 0 mm 1 mps 767 mmHg 68%
    20:00 +14°C° 0 mm 1 mps 767 mmHg 69%
    21:00 +12°C° 0 mm 0 mps 768 mmHg 70%
    22:00 +13°C° 0 mm 1 mps 767 mmHg 67%
    23:00 +13°C° 0 mm 1 mps 767 mmHg 64%

    25 February, Tuesday

    Time Temperature Precipitation Wind Pressure Humidity
    00:00 +13°C° 0 mm 1 mps 767 mmHg 61%
    01:00 +13°C° 0 mm 2 mps 767 mmHg 60%
    02:00 +13°C° 0 mm 2 mps 766 mmHg 59%
    03:00 +13°C° 0 mm 2 mps 766 mmHg 58%
    04:00 +13°C° 0 mm 2 mps 766 mmHg 57%
    05:00 +13°C° 0 mm 2 mps 766 mmHg 56%
    06:00 +13°C° 0 mm 2 mps 765 mmHg 55%
    07:00 +14°C° 0 mm 3 mps 766 mmHg 50%
    08:00 +17°C° 0 mm 3 mps 766 mmHg 44%
    09:00 +19°C° 0 mm 3 mps 766 mmHg 39%
    10:00 +21°C° 0 mm 3 mps 766 mmHg 36%
    11:00 +22°C° 0 mm 3 mps 766 mmHg 33%
    12:00 +25°C° 0 mm 3 mps 765 mmHg 30%
    13:00 +25°C° 0 mm 4 mps 765 mmHg 29%
    14:00 +26°C° 0 mm 4 mps 764 mmHg 28%
    15:00 +26°C° 0 mm 4 mps 763 mmHg 27%
    16:00 +23°C° 0 mm 4 mps 763 mmHg 33%
    17:00 +21°C° 0 mm 4 mps 763 mmHg 38%
    18:00 +19°C° 0 mm 4 mps 763 mmHg 44%
    19:00 +19°C° 0 mm 4 mps 763 mmHg 45%
    20:00 +18°C° 0 mm 4 mps 763 mmHg 46%
    21:00 +17°C° 0 mm 4 mps 764 mmHg 47%
    22:00 +17°C° 0 mm 4 mps 764 mmHg 50%
    23:00 +17°C° 0 mm 4 mps 764 mmHg 53%
    Show more